Time,TemperatureF,DewpointF,PressureIn,WindDirection,WindDirectionDegrees,WindSpeedMPH,WindSpeedGustMPH,Humidity,HourlyPrecipIn,Conditions,Clouds,dailyrainin,SoftwareType,DateUTC
2013-02-20 00:12:00,39.4,32.5,29.72,NW,315,5.3,-999.0,76,-99.99,,,0.00,Acu-Link.com,2013-02-20 05:12:00,
2013-02-20 00:27:00,38.3,31.1,29.72,West,270,2.2,-999.0,75,-99.99,,,0.00,Acu-Link.com,2013-02-20 05:27:00,
2013-02-20 00:42:00,37.4,29.6,29.73,NNW,337,4.7,-999.0,73,-99.99,,,0.00,Acu-Link.com,2013-02-20 05:42:00,
2013-02-20 00:57:00,36.9,28.7,29.73,North,0,2.2,-999.0,72,-99.99,,,0.00,Acu-Link.com,2013-02-20 05:57:00,
2013-02-20 01:12:00,36.1,28.0,29.74,North,0,2.2,-999.0,72,-99.99,,,0.00,Acu-Link.com,2013-02-20 06:12:00,
2013-02-20 01:27:00,35.6,27.5,29.74,West,270,4.7,-999.0,72,-99.99,,,0.00,Acu-Link.com,2013-02-20 06:27:00,
2013-02-20 01:43:00,35.4,26.9,29.75,WNW,292,2.7,-999.0,71,-99.99,,,0.00,Acu-Link.com,2013-02-20 06:43:00,
2013-02-20 01:58:00,36.0,25.8,29.75,West,270,7.3,-999.0,66,-99.99,,,0.00,Acu-Link.com,2013-02-20 06:58:00,
2013-02-20 02:13:00,36.3,25.3,29.76,West,270,5.3,-999.0,64,-99.99,,,0.00,Acu-Link.com,2013-02-20 07:13:00,
2013-02-20 02:28:00,36.3,24.5,29.76,West,270,4.7,-999.0,62,-99.99,,,0.00,Acu-Link.com,2013-02-20 07:28:00,
2013-02-20 02:43:00,35.6,24.3,29.77,WSW,247,3.7,-999.0,63,-99.99,,,0.00,Acu-Link.com,2013-02-20 07:43:00,
2013-02-20 02:58:00,35.2,24.6,29.77,West,270,4.7,-999.0,65,-99.99,,,0.00,Acu-Link.com,2013-02-20 07:58:00,
2013-02-20 03:13:00,34.5,24.0,29.77,NNE,22,4.2,-999.0,65,-99.99,,,0.00,Acu-Link.com,2013-02-20 08:13:00,
2013-02-20 03:28:00,34.5,24.0,29.77,NNW,337,2.2,-999.0,65,-99.99,,,0.00,Acu-Link.com,2013-02-20 08:28:00,
2013-02-20 03:43:00,33.8,23.7,29.78,North,0,3.7,-999.0,66,-99.99,,,0.00,Acu-Link.com,2013-02-20 08:43:00,
2013-02-20 03:58:00,33.4,23.3,29.78,West,270,3.7,-999.0,66,-99.99,,,0.00,Acu-Link.com,2013-02-20 08:58:00,
2013-02-20 04:18:00,33.4,23.3,29.78,WNW,292,4.7,-999.0,66,-99.99,,,0.00,Acu-Link.com,2013-02-20 09:18:00,
2013-02-20 04:33:00,31.8,23.2,29.79,North,0,2.2,-999.0,70,-99.99,,,0.00,Acu-Link.com,2013-02-20 09:33:00,
2013-02-20 04:48:00,31.5,23.2,29.77,WNW,292,3.7,-999.0,71,-99.99,,,0.00,Acu-Link.com,2013-02-20 09:48:00,
2013-02-20 05:03:00,32.0,22.7,29.76,West,270,5.3,-999.0,68,-99.99,,,0.00,Acu-Link.com,2013-02-20 10:03:00,
2013-02-20 05:18:00,32.5,22.4,29.76,WNW,292,4.2,-999.0,66,-99.99,,,0.00,Acu-Link.com,2013-02-20 10:18:00,
2013-02-20 05:33:00,33.4,21.8,29.76,West,270,10.4,-999.0,62,-99.99,,,0.00,Acu-Link.com,2013-02-20 10:33:00,
2013-02-20 05:48:00,32.9,19.8,29.77,SSW,202,5.3,-999.0,58,-99.99,,,0.00,Acu-Link.com,2013-02-20 10:48:00,
2013-02-20 06:03:00,32.7,19.2,29.77,West,270,5.8,-999.0,57,-99.99,,,0.00,Acu-Link.com,2013-02-20 11:03:00,
2013-02-20 06:19:00,31.8,19.1,29.79,North,0,4.2,-999.0,59,-99.99,,,0.00,Acu-Link.com,2013-02-20 11:19:00,
2013-02-20 06:34:00,31.3,19.8,29.80,West,270,3.2,-999.0,62,-99.99,,,0.00,Acu-Link.com,2013-02-20 11:34:00,
2013-02-20 06:49:00,30.4,20.4,29.82,North,0,2.7,-999.0,66,-99.99,,,0.00,Acu-Link.com,2013-02-20 11:49:00,
2013-02-20 07:04:00,30.9,20.5,29.83,NNW,337,4.7,-999.0,65,-99.99,,,0.00,Acu-Link.com,2013-02-20 12:04:00,
2013-02-20 07:19:00,31.3,19.0,29.82,WNW,292,5.8,-999.0,60,-99.99,,,0.00,Acu-Link.com,2013-02-20 12:19:00,
2013-02-20 07:34:00,32.0,18.1,29.83,WNW,292,5.3,-999.0,56,-99.99,,,0.00,Acu-Link.com,2013-02-20 12:34:00,
2013-02-20 07:49:00,33.8,18.1,29.83,WNW,292,6.8,-999.0,52,-99.99,,,0.00,Acu-Link.com,2013-02-20 12:49:00,
2013-02-20 08:04:00,34.3,18.1,29.83,WNW,292,6.8,-999.0,51,-99.99,,,0.00,Acu-Link.com,2013-02-20 13:04:00,
2013-02-20 08:19:00,34.0,17.3,29.84,WNW,292,4.7,-999.0,50,-99.99,,,0.00,Acu-Link.com,2013-02-20 13:19:00,
2013-02-20 08:35:00,34.2,18.0,29.86,SSW,202,7.8,-999.0,51,-99.99,,,0.00,Acu-Link.com,2013-02-20 13:35:00,
2013-02-20 08:50:00,34.7,18.0,29.84,West,270,5.8,-999.0,50,-99.99,,,0.00,Acu-Link.com,2013-02-20 13:50:00,
2013-02-20 09:05:00,35.2,18.4,29.85,NW,315,7.3,-999.0,50,-99.99,,,0.00,Acu-Link.com,2013-02-20 14:05:00,
2013-02-20 09:20:00,35.4,18.2,29.85,North,0,9.4,-999.0,49,-99.99,,,0.00,Acu-Link.com,2013-02-20 14:20:00,
2013-02-20 09:35:00,36.5,19.2,29.84,South,180,9.4,-999.0,49,-99.99,,,0.00,Acu-Link.com,2013-02-20 14:35:00,
2013-02-20 09:50:00,36.9,18.1,29.86,North,0,7.8,-999.0,46,-99.99,,,0.00,Acu-Link.com,2013-02-20 14:50:00,
2013-02-20 10:05:00,37.2,18.4,29.86,NNW,337,9.4,-999.0,46,-99.99,,,0.00,Acu-Link.com,2013-02-20 15:05:00,
2013-02-20 10:20:00,36.7,17.4,29.86,WSW,247,8.3,-999.0,45,-99.99,,,0.00,Acu-Link.com,2013-02-20 15:20:00,
2013-02-20 10:35:00,39.0,17.9,29.86,WNW,292,9.4,-999.0,42,-99.99,,,0.00,Acu-Link.com,2013-02-20 15:35:00,
2013-02-20 10:51:00,39.2,17.5,29.86,West,270,9.4,-999.0,41,-99.99,,,0.00,Acu-Link.com,2013-02-20 15:51:00,
2013-02-20 11:06:00,40.1,18.3,29.87,WNW,292,6.3,-999.0,41,-99.99,,,0.00,Acu-Link.com,2013-02-20 16:06:00,
2013-02-20 11:21:00,40.1,17.2,29.87,West,270,7.3,-999.0,39,-99.99,,,0.00,Acu-Link.com,2013-02-20 16:21:00,
2013-02-20 11:36:00,41.2,18.7,29.87,West,270,4.7,-999.0,40,-99.99,,,0.00,Acu-Link.com,2013-02-20 16:36:00,
2013-02-20 11:51:00,41.2,18.7,29.88,West,270,6.8,-999.0,40,-99.99,,,0.00,Acu-Link.com,2013-02-20 16:51:00,
2013-02-20 12:06:00,39.0,17.3,29.86,NNW,337,5.3,-999.0,41,-99.99,,,0.00,Acu-Link.com,2013-02-20 17:06:00,
2013-02-20 12:21:00,41.2,20.4,29.86,NW,315,9.4,-999.0,43,-99.99,,,0.00,Acu-Link.com,2013-02-20 17:21:00,
2013-02-20 12:36:00,42.6,22.2,29.87,SW,225,6.3,-999.0,44,-99.99,,,0.00,Acu-Link.com,2013-02-20 17:36:00,
2013-02-20 12:51:00,38.5,17.4,29.84,NW,315,9.4,-999.0,42,-99.99,,,0.00,Acu-Link.com,2013-02-20 17:51:00,
2013-02-20 13:07:00,38.3,17.8,29.85,West,270,6.8,-999.0,43,-99.99,,,0.00,Acu-Link.com,2013-02-20 18:07:00,
2013-02-20 13:22:00,39.6,19.0,29.84,NW,315,9.4,-999.0,43,-99.99,,,0.00,Acu-Link.com,2013-02-20 18:22:00,
2013-02-20 13:37:00,39.9,18.1,29.85,South,180,6.3,-999.0,41,-99.99,,,0.00,Acu-Link.com,2013-02-20 18:37:00,
2013-02-20 13:52:00,40.3,16.7,29.85,WNW,292,10.9,-999.0,38,-99.99,,,0.00,Acu-Link.com,2013-02-20 18:52:00,
2013-02-20 14:07:00,41.7,17.4,29.84,NW,315,7.3,-999.0,37,-99.99,,,0.00,Acu-Link.com,2013-02-20 19:07:00,
2013-02-20 14:22:00,40.8,17.2,29.84,NW,315,6.8,-999.0,38,-99.99,,,0.00,Acu-Link.com,2013-02-20 19:22:00,
2013-02-20 14:37:00,41.0,15.5,29.86,NNW,337,11.9,-999.0,35,-99.99,,,0.00,Acu-Link.com,2013-02-20 19:37:00,
2013-02-20 14:52:00,41.9,18.2,29.85,West,270,4.2,-999.0,38,-99.99,,,0.00,Acu-Link.com,2013-02-20 19:52:00,
2013-02-20 15:07:00,42.4,17.4,29.85,West,270,6.8,-999.0,36,-99.99,,,0.00,Acu-Link.com,2013-02-20 20:07:00,
2013-02-20 15:23:00,40.1,15.9,29.86,NW,315,9.9,-999.0,37,-99.99,,,0.00,Acu-Link.com,2013-02-20 20:23:00,
2013-02-20 15:38:00,39.4,15.9,29.85,West,270,6.8,-999.0,38,-99.99,,,0.00,Acu-Link.com,2013-02-20 20:38:00,
2013-02-20 15:53:00,38.8,15.4,29.86,WNW,292,11.9,-999.0,38,-99.99,,,0.00,Acu-Link.com,2013-02-20 20:53:00,
2013-02-20 16:08:00,38.3,16.1,29.88,West,270,7.3,-999.0,40,-99.99,,,0.00,Acu-Link.com,2013-02-20 21:08:00,
2013-02-20 16:23:00,37.0,15.5,29.88,NW,315,10.4,-999.0,41,-99.99,,,0.00,Acu-Link.com,2013-02-20 21:23:00,
2013-02-20 16:38:00,37.0,15.5,29.88,West,270,10.4,-999.0,41,-99.99,,,0.00,Acu-Link.com,2013-02-20 21:38:00,
2013-02-20 16:54:00,36.3,16.0,29.89,West,270,4.2,-999.0,43,-99.99,,,0.00,Acu-Link.com,2013-02-20 21:54:00,
2013-02-20 17:09:00,34.9,15.2,29.89,West,270,11.4,-999.0,44,-99.99,,,0.00,Acu-Link.com,2013-02-20 22:09:00,
2013-02-20 17:24:00,34.3,15.2,29.89,WNW,292,10.9,-999.0,45,-99.99,,,0.00,Acu-Link.com,2013-02-20 22:24:00,
2013-02-20 17:39:00,33.6,15.1,29.89,NW,315,14.5,-999.0,46,-99.99,,,0.00,Acu-Link.com,2013-02-20 22:39:00,
2013-02-20 17:54:00,32.9,14.9,29.91,WNW,292,10.4,-999.0,47,-99.99,,,0.00,Acu-Link.com,2013-02-20 22:54:00,
2013-02-20 18:09:00,32.5,14.5,29.91,West,270,10.4,-999.0,47,-99.99,,,0.00,Acu-Link.com,2013-02-20 23:09:00,
2013-02-20 18:24:00,32.2,13.8,29.92,WSW,247,9.4,-999.0,46,-99.99,,,0.00,Acu-Link.com,2013-02-20 23:24:00,
2013-02-20 18:39:00,32.0,14.6,29.93,West,270,7.8,-999.0,48,-99.99,,,0.00,Acu-Link.com,2013-02-20 23:39:00,
2013-02-20 18:54:00,31.5,13.1,29.94,WNW,292,9.9,-999.0,46,-99.99,,,0.00,Acu-Link.com,2013-02-20 23:54:00,
2013-02-20 19:10:00,31.1,13.7,29.95,West,270,8.3,-999.0,48,-99.99,,,0.00,Acu-Link.com,2013-02-21 00:10:00,
2013-02-20 19:25:00,31.1,13.7,29.95,WNW,292,7.8,-999.0,48,-99.99,,,0.00,Acu-Link.com,2013-02-21 00:25:00,
2013-02-20 19:40:00,30.7,12.9,29.95,NW,315,8.9,-999.0,47,-99.99,,,0.00,Acu-Link.com,2013-02-21 00:40:00,
2013-02-20 19:55:00,30.2,12.4,29.96,NNW,337,7.3,-999.0,47,-99.99,,,0.00,Acu-Link.com,2013-02-21 00:55:00,
2013-02-20 20:10:00,29.8,12.1,29.96,West,270,8.9,-999.0,47,-99.99,,,0.00,Acu-Link.com,2013-02-21 01:10:00,
2013-02-20 20:25:00,29.8,12.5,29.96,West,270,7.8,-999.0,48,-99.99,,,0.00,Acu-Link.com,2013-02-21 01:25:00,
2013-02-20 20:41:00,29.5,12.7,29.96,West,270,10.9,-999.0,49,-99.99,,,0.00,Acu-Link.com,2013-02-21 01:41:00,
2013-02-20 20:56:00,29.3,12.5,29.97,NW,315,8.9,-999.0,49,-99.99,,,0.00,Acu-Link.com,2013-02-21 01:56:00,
2013-02-20 21:11:00,29.1,12.4,29.97,NNW,337,9.9,-999.0,49,-99.99,,,0.00,Acu-Link.com,2013-02-21 02:11:00,
2013-02-20 21:26:00,28.8,11.6,29.98,West,270,9.9,-999.0,48,-99.99,,,0.00,Acu-Link.com,2013-02-21 02:26:00,
2013-02-20 21:41:00,28.4,11.7,29.98,NW,315,8.3,-999.0,49,-99.99,,,0.00,Acu-Link.com,2013-02-21 02:41:00,
2013-02-20 21:56:00,28.4,10.8,29.98,WNW,292,7.8,-999.0,47,-99.99,,,0.00,Acu-Link.com,2013-02-21 02:56:00,
2013-02-20 22:11:00,27.9,10.8,29.99,WNW,292,7.8,-999.0,48,-99.99,,,0.00,Acu-Link.com,2013-02-21 03:11:00,
2013-02-20 22:26:00,27.1,10.0,29.99,WNW,292,5.8,-999.0,48,-99.99,,,0.00,Acu-Link.com,2013-02-21 03:26:00,
2013-02-20 22:41:00,27.0,10.0,29.99,NW,315,6.8,-999.0,48,-99.99,,,0.00,Acu-Link.com,2013-02-21 03:41:00,
2013-02-20 23:12:00,26.1,10.0,30.02,NNW,337,3.2,-999.0,50,-99.99,,,0.00,Acu-Link.com,2013-02-21 04:12:00,
2013-02-20 23:27:00,25.9,9.8,30.02,West,270,4.7,-999.0,50,-99.99,,,0.00,Acu-Link.com,2013-02-21 04:27:00,
2013-02-20 23:42:00,25.9,9.8,30.02,WNW,292,4.7,-999.0,50,-99.99,,,0.00,Acu-Link.com,2013-02-21 04:42:00,
2013-02-20 23:57:00,26.2,10.1,30.02,West,270,8.9,-999.0,50,-99.99,,,0.00,Acu-Link.com,2013-02-21 04:57:00,